This demonstration page uses our WeatherBlox Daily Observations layout. Learn more.

Left ArrowRight Arrow

47.50024, -111.30081

Hourly Observations for January 9, 2018

Temp ( °F °C ) Dew Point ( °F °C ) Humidity (%) Winds ( mph kmh ) Pressure ( in mb ) Visibility ( mi km ) Precip ( " mm )
12:53 am 00:53 Clear 41 5 25 -3.9 53 53 S 12 19 29.71 1006 10 16 0.00 0.00
1:53 am 01:53 Clear 40 4.4 26 -3.3 58 58 SSW 14 22 29.68 1005 10 16 0.00 0.00
2:53 am 02:53 Mostly Cloudy 40 4.4 26 -3.3 58 58 SW 12 19 29.68 1005 10 16 0.00 0.00
3:53 am 03:53 Mostly Cloudy 43 6.1 25 -3.9 49 49 SSW 17 28 29.65 1004 10 16 0.00 0.00
4:53 am 04:53 Mostly Cloudy 41 5 26 -3.3 55 55 SSW 17 28 29.64 1004 10 16 0.00 0.00
5:53 am 05:53 Clear 41 5 26 -3.3 55 55 S 16 26 29.61 1003 10 16 0.00 0.00
6:53 am 06:53 Clear 42 5.6 27 -2.8 55 55 S 18 30 29.59 1002 10 16 0.00 0.00
7:53 am 07:53 Clear 42 5.6 27 -2.8 55 55 SSW 14 22 29.58 1002 10 16 0.00 0.00
8:53 am 08:53 Partly Cloudy 43 6.1 29 -1.7 58 58 SSW 21 33 29.54 1000 10 16 0.00 0.00
9:53 am 09:53 Mostly Sunny 43 6.1 29 -1.7 58 58 SSW 25 41 29.53 1000 10 16 0.00 0.00
10:53 am 10:53 Sunny 47 8.3 30 -1.1 52 52 SSW 21 33 29.51 999 10 16 0.00 0.00
11:53 am 11:53 Sunny 47 8.3 30 -1.1 52 52 SSW 23 37 29.48 998 10 16 0.00 0.00
12:53 pm 12:53 Sunny 48 8.9 31 -0.6 52 52 SSW 23 37 29.44 997 10 16 0.00 0.00
1:53 pm 13:53 Sunny 47 8.3 32 0 56 56 SSW 25 41 29.43 997 10 16 0.00 0.00
2:53 pm 14:53 Sunny 48 8.9 31 -0.6 52 52 SW 17 28 29.42 996 10 16 0.00 0.00
3:53 pm 15:53 Mostly Sunny 47 8.3 31 -0.6 54 54 SW 14 22 29.43 997 10 16 0.00 0.00
4:53 pm 16:53 Sunny 42 5.6 31 -0.6 65 65 SW 13 20 29.46 998 10 16 0.00 0.00
5:53 pm 17:53 Mostly Cloudy 46 7.8 32 0 58 58 SW 17 28 29.44 997 10 16 0.00 0.00
6:53 pm 18:53 Cloudy 46 7.8 33 0.6 61 61 SW 17 28 29.44 997 10 16 0.00 0.00
7:34 pm 19:34 Cloudy 32 0 27 -2.8 82 82 N 24 39 29.56 1001 9 14 0.00 0.00
7:46 pm 19:46 Cloudy with Mist and Fog 28 -2.2 25 -3.9 88 88 N 23 37 29.59 1002 5 8 0.00 0.00
7:53 pm 19:53 Cloudy with Mist and Fog 27 -2.8 24 -4.4 89 89 N 22 35 29.57 1001 4 6 0.00 0.00
8:53 pm 20:53 Cloudy with Mist and Fog 21 -6.1 19 -7.2 92 92 N 23 37 29.66 1004 4 6 0.00 0.03
9:21 pm 21:21 Cloudy with Light Snow 19 -7.2 16 -8.9 88 88 NNW 18 30 29.80 1009 3 4 0.00 0.03
9:32 pm 21:32 Cloudy with Light Snow 18 -7.8 15 -9.4 88 88 N 16 26 29.83 1010 2 3 0.01 0.25
9:53 pm 21:53 Cloudy with Light Snow 16 -8.9 13 -10.6 88 88 NNW 18 30 29.72 1006 2 2 0.01 0.25
10:10 pm 22:10 Windy with Snow Likely 15 -9.4 12 -11.1 88 88 NNW 21 33 29.88 1012 3 5 0.00 0.03
10:30 pm 22:30 Cloudy with Light Snow 14 -10 10 -12.2 84 84 NNW 17 28 29.88 1012 3 5 0.00 0.03
10:53 pm 22:53 Cloudy 13 -10.6 9 -12.8 84 84 NNW 16 26 29.75 1008 9 14 0.00 0.03
11:53 pm 23:53 Cloudy 11 -11.7 6 -14.4 81 81 NNW 14 22 29.79 1009 9 14 0.00 0.03

Powered by AerisWeather